Погода в Коломне

Россия / Московская область     55°06′11″N   38°45′10″E
темп.,
°C
ветер,
м/с
пор.,
м/с
влажн.,
%
обл.,
%
осадки,
мм/ч
давл.,
гПа
погр.,
м
17 мая, пн
пн1700:00+14в117922 0.0 101411
03:00+13в33865 0.0 101429
06:00+14в378975 0.1 1014162
09:00+18в5108714 1.9 1014361
12:00+24вюв68695 0.0 1013901
15:00+26юв6107116 0.0 10111187
18:00+23юв61272100 0.0 1011423
21:00+19юв51580100 0.0 1011308
18 мая, вт
вт1800:00+16вюв414904 0.0 1011245
03:00+15вюв413810 0.0 1010244
06:00+14вюв412816 0.0 1010258
09:00+20вюв611715 0.0 1010431
12:00+24юв712635 0.0 1010726
15:00+25вюв7116435 0.0 1009906
18:00+22вюв71666100 0.0 1008545
21:00+20вюв6167527 0.0 1009436
19 мая, ср
ср1900:00+17вюв5147940 0.0 1008330
03:00+14юв310875 0.0 1009179
06:00+15вюв37875 0.0 1009180
09:00+20юв34746 0.0 1010397
12:00+23ю4566100 0.1 1010974
15:00+23вюв5871100 0.1 1009735
18:00+22юв4976100 0.0 1008423
21:00+18вюв358749 0.9 100870
20 мая, чт
чт2000:00+17в41692100 1.5 1008404
03:00+16вюв3794100 2.9 1007148
06:00+15вюв4992100 1.1 1007390
09:00+19вюв8118596 1.3 1006983
12:00+19ююв7983100 1.4 10061137
15:00+19ю7107528 2.4 10071360
18:00+18ююв6107969 0.8 1008889
21:00+14ююв5129170 1.4 1009380
21 мая, пт
пт2100:00+13ю510950 0.0 1010301
03:00+11ю4119640 0.0 1010250
06:00+13ююв61491100 0.0 1010453
09:00+14ю71488100 0.2 10101014
12:00+13ю7139132 2.9 1010694
15:00+16юз8147740 4.1 10091539
18:00+12юз8147941 0.2 10111364
21:00+9юз81381100 0.3 1013964